Accueil
METAR-TAF:

METAR-TAF

Aéroports :

Newton City/County Airport

Newton, Kansas, États-Unis

latitude: 38-03N, longitude: 097-17W, altitude: 467 m

Observation

Le bulletin a été fait il y a 23 minutes, à 18:56 UTC
Vent 5 kt de sud/sud-est
Température 33°C
Humidité 53%
Pression 1016 hPa
Visibilité: 16.1 km
Ciel clair

METAR: KEWK 151856Z AUTO 16005KT 10SM CLR 33/22 A3001 RMK AO2 SLP143 T03280222

Heure: 14:19 (19:19 UTC)


TAF: absent

Observations et prévisions météorologiques de plus de 4000 aéroports (messages METAR et TAF).

Les stations disponibles sont représentées par des disques jaunes et rouges sur la carte.

Passer la souris dessus pour voir le nom de la station.

Cliquer dessus pour voir les observations et prévisions météorologiques.

Pour changer de carte: cliquez sur les boutons verts avec une croix noire pour zoomer, sur le bouton vert avec un tiret pour effectuer un zoom arrière, ou sur les flèches vertes pour les cartes adjacentes.


METAR-TAF: